St. Cloud, MN

8:43 AM CDT on March 25, 2017 (GMT -0500)
Saint Cloud Regional

Weather History for KSTC - July, 2014

Change the Weather History Date:

Wednesday, July 23, 2014

  Actual Average Record
Temperature  
Mean Temperature 69 °F 70 °F  
Max Temperature 82 °F 83 °F 107 °F (1934)
Min Temperature 56 °F 59 °F 45 °F (1978)
Degree Days  
Heating Degree Days 0 0  
Month to date heating degree days 7 13  
Since 1 June heating degree days 33 91  
Since 1 July heating degree days 7 13  
Cooling Degree Days 4 6  
Month to date cooling degree days 127 137  
Year to date cooling degree days 304 257  
Since 1 June cooling degree days 260 232  
Growing Degree Days 19 (Base 50)    
Moisture  
Dew Point 53 °F    
Average Humidity 59    
Maximum Humidity 87    
Minimum Humidity 30    
Precipitation  
Precipitation 0.00 in 0.10 in 2.32 in (1912)
Month to date precipitation 0.83 2.49  
Year to date precipitation 23.36 14.97  
Snow  
Snow 0.00 in 0.00 in 0.00 in ()
Month to date snowfall 0.0 0.0  
Since 1 June snowfall 0.0 0.0  
Since 1 July snowfall 0.0 0.0  
Snow Depth 0.00 in    
Sea Level Pressure  
Sea Level Pressure 30.24 in    
Wind  
Wind Speed 5 mph (NNW)    
Max Wind Speed 14 mph    
Max Gust Speed 20 mph    
Visibility 10 miles    
Events      
T = Trace of Precipitation, MM = Missing Value Source: NWS Daily Summary

Daily Weather History Graph

Daily Weather History Graph

Search for Another Location

Airport or City:

Trip Planner

Search our weather history database for the weather conditions in past years. The results will help you decide how hot, cold, wet, or windy it might be!

Date:

Astronomy

Jul. 23, 2014 Rise Set
Actual Time 5:49 AM CDT 8:54 PM CDT
Civil Twilight 5:14 AM CDT 9:30 PM CDT
Nautical Twilight 4:28 AM CDT 10:15 PM CDT
Astronomical Twilight 3:33 AM CDT 11:10 PM CDT
Moon 3:10 AM CDT (7/23) 6:23 PM CDT (7/23)
Length of Visible Light 16h 15m
Length of Day
15h 04m
Waning Crescent, 9% of the Moon is Illuminated
Jul 23
Waning Crescent
Jul 26
New
Aug 3
First Quarter
Aug 10
Full
Aug 17
Last Quarter

Hourly Weather History & Observations

Time (CDT) Temp. Heat Index Dew Point Humidity Pressure Visibility Wind Dir Wind Speed Gust Speed Precip Events Conditions
12:53 AM 62.1 °F - 55.0 °F 78% 30.21 in 10.0 mi North 4.6 mph - N/A   Clear
1:53 AM 62.1 °F - 55.0 °F 78% 30.22 in 10.0 mi NNW 3.5 mph - N/A   Clear
2:53 AM 59.0 °F - 54.0 °F 83% 30.23 in 10.0 mi NW 4.6 mph - N/A   Clear
3:53 AM 57.9 °F - 54.0 °F 87% 30.23 in 10.0 mi NNW 3.5 mph - N/A   Clear
4:53 AM 57.0 °F - 53.1 °F 87% 30.25 in 10.0 mi NNW 4.6 mph - N/A   Clear
5:53 AM 57.0 °F - 53.1 °F 87% 30.27 in 10.0 mi NNW 4.6 mph - N/A   Clear
6:53 AM 60.1 °F - 55.0 °F 83% 30.28 in 10.0 mi NNW 5.8 mph - N/A   Clear
7:53 AM 66.0 °F - 57.0 °F 73% 30.30 in 10.0 mi NNW 8.1 mph - N/A   Clear
8:53 AM 71.1 °F - 57.9 °F 63% 30.28 in 10.0 mi North 5.8 mph - N/A   Clear
9:53 AM 75.9 °F - 55.9 °F 50% 30.27 in 10.0 mi Variable 5.8 mph - N/A   Clear
10:53 AM 77.0 °F - 53.1 °F 43% 30.27 in 10.0 mi NNW 8.1 mph - N/A   Clear
11:53 AM 77.0 °F - 54.0 °F 45% 30.27 in 10.0 mi NNW 9.2 mph - N/A   Partly Cloudy
12:53 PM 80.1 °F 79.9 °F 53.1 °F 39% 30.27 in 10.0 mi North 10.4 mph 17.3 mph N/A   Clear
1:53 PM 77.0 °F - 50.0 °F 39% 30.27 in 10.0 mi North 10.4 mph - N/A   Clear
2:53 PM 80.1 °F - 46.9 °F 31% 30.26 in 10.0 mi North 6.9 mph - N/A   Clear
3:53 PM 81.0 °F - 46.9 °F 30% 30.25 in 10.0 mi North 11.5 mph 16.1 mph N/A   Clear
4:53 PM 81.0 °F - 50.0 °F 34% 30.23 in 10.0 mi NNW 5.8 mph - N/A   Clear
5:53 PM 81.0 °F - 52.0 °F 36% 30.22 in 10.0 mi NNW 6.9 mph - N/A   Clear
6:53 PM 80.1 °F - 50.0 °F 35% 30.21 in 10.0 mi North 4.6 mph - N/A   Clear
7:53 PM 78.1 °F - 51.1 °F 39% 30.19 in 10.0 mi North 3.5 mph - N/A   Clear
8:53 PM 69.1 °F - 57.0 °F 65% 30.19 in 10.0 mi Calm Calm - N/A   Clear
9:53 PM 63.0 °F - 55.9 °F 78% 30.19 in 10.0 mi Calm Calm - N/A   Clear
10:53 PM 62.1 °F - 55.0 °F 78% 30.18 in 10.0 mi Calm Calm - N/A   Clear
11:53 PM 59.0 °F - 55.0 °F 87% 30.19 in 10.0 mi Calm Calm - N/A   Clear